TimeMDT,TemperatureF,Dew PointF,Humidity,Sea Level PressureIn,VisibilityMPH,Wind Direction,Wind SpeedMPH,Gust SpeedMPH,PrecipitationIn,Events,Conditions,WindDirDegrees,DateUTC
12:53 AM,61.0,48.0,62,29.94,10.0,East,3.5,-,N/A,,Clear,100,2013-07-17 06:53:00
1:53 AM,57.9,46.9,67,29.95,10.0,Calm,Calm,-,N/A,,Clear,0,2013-07-17 07:53:00
2:53 AM,55.9,46.0,69,29.98,10.0,WSW,3.5,-,N/A,,Clear,240,2013-07-17 08:53:00
3:53 AM,55.0,45.0,69,30.00,10.0,Calm,Calm,-,N/A,,Clear,0,2013-07-17 09:53:00
4:53 AM,57.9,46.0,65,30.01,10.0,Calm,Calm,-,N/A,,Clear,0,2013-07-17 10:53:00
5:53 AM,54.0,46.0,75,30.06,10.0,Calm,Calm,-,N/A,,Clear,0,2013-07-17 11:53:00
6:53 AM,59.0,46.9,64,30.07,10.0,Calm,Calm,-,N/A,,Clear,0,2013-07-17 12:53:00
7:53 AM,64.0,48.0,56,30.08,10.0,East,3.5,-,N/A,,Clear,80,2013-07-17 13:53:00
8:53 AM,73.0,48.9,42,30.07,10.0,ENE,6.9,-,N/A,,Clear,70,2013-07-17 14:53:00
9:53 AM,77.0,48.9,37,30.06,10.0,NE,5.8,-,N/A,,Clear,40,2013-07-17 15:53:00
10:53 AM,82.0,50.0,33,30.03,10.0,North,8.1,-,N/A,,Clear,350,2013-07-17 16:53:00
11:53 AM,84.9,50.0,30,30.03,10.0,WNW,10.4,-,N/A,,Clear,290,2013-07-17 17:53:00
12:53 PM,86.0,48.0,27,30.02,10.0,Variable,4.6,16.1,N/A,,Clear,0,2013-07-17 18:53:00
1:53 PM,88.0,44.1,22,30.01,10.0,Variable,3.5,-,N/A,,Clear,0,2013-07-17 19:53:00
2:53 PM,91.0,44.1,20,29.97,10.0,Variable,6.9,-,N/A,,Clear,0,2013-07-17 20:53:00
3:53 PM,93.0,41.0,16,29.96,10.0,Variable,4.6,-,N/A,,Clear,0,2013-07-17 21:53:00
4:53 PM,91.0,39.9,17,29.92,10.0,Variable,4.6,-,N/A,,Clear,0,2013-07-17 22:53:00
5:53 PM,93.0,39.9,16,29.92,10.0,West,5.8,-,N/A,,Partly Cloudy,280,2013-07-17 23:53:00
6:53 PM,84.0,48.0,28,29.97,10.0,WSW,21.9,31.1,N/A,,Scattered Clouds,240,2013-07-18 00:53:00
7:53 PM,80.1,46.9,31,29.98,10.0,WSW,18.4,-,N/A,,Clear,250,2013-07-18 01:53:00
8:53 PM,73.9,46.9,38,29.99,10.0,SW,8.1,-,N/A,,Clear,230,2013-07-18 02:53:00
9:53 PM,71.1,46.9,42,30.03,10.0,West,3.5,-,N/A,,Clear,270,2013-07-18 03:53:00
10:53 PM,72.0,50.0,46,30.05,10.0,ENE,4.6,-,N/A,,Overcast,60,2013-07-18 04:53:00
11:53 PM,68.0,48.9,50,30.03,10.0,Calm,Calm,-,N/A,,Mostly Cloudy,0,2013-07-18 05:53:00